Regional Weather Roundup
Issued by NWS

Home | Current Version | Previous Version | Graphics & Text | Print | Product List | Glossary On
Versions: 1 2 3 4 5 6 7 8 9 10 11 12 13 14 15 16 17 18 19 20 21 22 23 24 25 26 27 28 29 30 31 32 33 34 35 36 37 38 39 40 41 42 43 44 45 46 47 48 49 50
000
ASUS45 KABQ 041601
RWRNM
WEATHER ROUNDUP FOR NEW MEXICO
NATIONAL WEATHER SERVICE ALBUQUERQUE NM
1000 AM MDT MON MAY 04 2015

NOTE: "FAIR" MEANS FEW OR NO CLOUDS BELOW 12,000 FEET AGL WITH NO
       SIGNIFICANT WEATHER OR OBSTRUCTIONS TO VISION.

      THIS PRODUCT IS RELEASED AS TWO VERSIONS.  ONE VERSION NEAR
      THE TOP OF THE HOUR CONTAINING PRELIMINARY DATA FROM ALBUQUERQUE
      AND OTHER STATIONS.  A FINAL VERSION WITH ADDITIONAL DATA IS
      ISSUED ABOUT 10 MINUTES AFTER THE HOUR.

NMZ501-503-504-510>518-041700-
NORTHWEST PLATEAU/NORTHCENTRAL MOUNTAINS

CITY           SKY/WX    TMP DP  RH WIND       PRES   REMARKS
FARMINGTON     SUNNY     63  39  41 E9        30.03F
SANTA FE       PTSUNNY   61  39  44 NE7       30.09F
TAOS           MOSUNNY   57  36  44 NW6       30.13S
ANGEL FIRE     FAIR      47  40  76 N3        30.20S

$$
NMZ402-403-502-505>509-041700-
WESTCENTRAL MOUNTAINS/SOUTHWEST MOUNTAINS

CITY           SKY/WX    TMP DP  RH WIND       PRES   REMARKS
GALLUP         PTSUNNY   59  38  45 CALM      30.07F
GRANTS         MOSUNNY   62  37  39 SE14G20   30.10S
SILVER CITY      N/A     64  37  36 NW5       30.06R

$$
NMZ407-409-411-412-041700-
SOUTHERN DESERTS

CITY           SKY/WX    TMP DP  RH WIND       PRES   REMARKS
DEMING         PTSUNNY   70  44  39 W8        29.99S
ALAMOGORDO     MOSUNNY   68  46  45 CALM      29.98S
T OR C         PTSUNNY   68  40  35 CALM      30.00R

$$
NMZ519>523-041700-
CENTRAL VALLEYS/CENTRAL HIGHLANDS

CITY           SKY/WX    TMP DP  RH WIND       PRES   REMARKS
ALBUQUERQUE    MOSUNNY   67  39  35 W3        30.04F
DOUBLE EAGLE   MOSUNNY   64  41  42 NE12      30.07F
MORIARTY ARPT  FAIR      63  37  38 N3        30.09F
CLINES CORNERS CLOUDY    58  41  53 NE13      30.11F
BELEN          FAIR      66  39  37 NW5       30.03F
SOCORRO        NOT AVBL

$$
NMZ524>526-539-540-041700-
SOUTHCENTRAL MOUNTAINS

CITY           SKY/WX    TMP DP  RH WIND       PRES   REMARKS
RUIDOSO        NOT AVBL

$$
NMZ527>531-041700-
NORTHEAST HIGHLANDS/NORTHEAST PLAINS

CITY           SKY/WX    TMP DP  RH WIND       PRES   REMARKS
LAS VEGAS      MOSUNNY   60  38  43 VRB6      30.12F
RATON          MOSUNNY   63  40  42 E8        30.10F
CLAYTON        MOSUNNY   67  46  47 VRB3      30.08S

$$
NMZ532>537-041700-
EASTCENTRAL PLAINS

CITY           SKY/WX    TMP DP  RH WIND       PRES   REMARKS
TUCUMCARI      MOSUNNY   69  53  56 CALM      30.03R
CANNON AFB     NOT AVBL
CLOVIS AIRPORT MOSUNNY   72  55  56 SE13G20   30.05S

$$
NMZ028-029-538-041700-
SOUTHEAST PLAINS

CITY           SKY/WX    TMP DP  RH WIND       PRES   REMARKS
ROSWELL        PTSUNNY   68  53  58 SE14      30.01R
ARTESIA        MOSUNNY   72  52  49 CALM      30.01S
CARLSBAD       MOSUNNY   72  56  57 SE13      29.98S
HOBBS          SUNNY     66  59  77 SE9       30.03F


$$



USA.gov is the U.S. government's official web portal to all federal, state and local government web resources and services.